Regional Weather Roundup
Issued by NWS Lake Charles, LA

Home | Current Version | Previous Version | Text Only | Print | Product List | Glossary On
Versions: 1 2 3 4 5 6 7 8 9 10 11 12 13 14 15 16 17 18 19 20 21 22 23 24 25 26 27 28 29 30 31 32 33 34 35 36 37 38 39 40 41 42 43 44 45 46 47 48 49 50
000
ASUS44 KLCH 110510
RWRLCH
REGIONAL WEATHER ROUNDUP
NATIONAL WEATHER SERVICE LAKE CHARLES LA
1100 PM CST WED FEB 10 2016

Note: "fair" indicates few or no clouds below 12,000 feet with no
significant weather and/or obstructions to visibility.


ACROSS SOUTHEAST TEXAS

CITY           SKY/WX    TMP DP  RH WIND       PRES   REMARKS
BEAUMONT       CLEAR     51  48  89 S6        30.23S
BEAUMONT CITY  NOT AVBL
ORANGE         CLEAR     50  46  85 S6        30.24F
JASPER         CLEAR     47  40  76 SW5       30.23S
$$

ACROSS CENTRAL LOUISIANA

CITY           SKY/WX    TMP DP  RH WIND       PRES   REMARKS
LEESVILLE      CLEAR     48  39  71 S6        30.19F HAZE
FULLERTON      NOT AVBL
ALEXANDRIA INT PTCLDY    48  36  63 SW12G18   30.17S
ESLER FIELD    PTCLDY    50  33  52 SW8       30.18S
DERIDDER         N/A     46  40  80 S6        30.22F
OAKDALE          N/A     46  39  79 S3        30.21F
OPELOUSAS      FAIR      44  37  78 S8        30.22F
$$

ACROSS SOUTHWEST AND SOUTH CENTRAL LOUISIANA

CITY           SKY/WX    TMP DP  RH WIND       PRES   REMARKS
SULPHUR        CLEAR     46  45  93 MISG      30.24S
LAKE CHARLES   CLEAR     49  46  90 SW5       30.23F
CHENNAULT INT  CLEAR     47  44  88 S6        30.23F
CAMERON PHI    CLEAR     57  52  82 SW12      30.27S
DEQUINCY       FAIR      45  42  92 S3        30.22F
JENNINGS       FAIR      46  43  87 S5        30.23F
LAFAYETTE      CLEAR     45  36  70 S7        30.24F
NEW IBERIA     CLEAR     45  40  82 S6        30.25F
ABBEVILLE      FAIR      46  40  80 S6        30.24F
PATTERSON      CLEAR     46  37  71 S5        30.26F
SALT POINT       N/A     50  45  83 VRB3      30.25F
$$

SELECTED SITES ACROSS THE REGION

CITY           SKY/WX    TMP DP  RH WIND       PRES   REMARKS
HOUSTON BUSH   CLEAR     56  46  69 S7        30.22S
HOUSTON HOBBY  CLEAR     53  47  79 S7        30.23S
GALVESTON      CLEAR     58  56  93 S12       30.24F
COLLEGE STAT   CLEAR     54  44  69 S10       30.18F
CONROE         CLEAR     55  43  63 SW8       30.21F
HUNTSVILLE     CLEAR     56  43  61 S12       30.17F
LUFKIN         CLEAR     51  40  65 S10       30.17F
SHREVEPORT     PTCLDY    56  34  43 S10       30.09S
MONROE         CLEAR     48  32  53 S8        30.12S
NATCHEZ MS     CLEAR     50  30  46 SW10G16   30.17S
BATON ROUGE    CLEAR     48  36  63 SW14      30.22F
N.O. INTL ARPT PTCLDY    48  29  47 SW12      30.25F
SLIDELL        CLEAR     49  36  61 SW7       30.24S
$$

MARINE REPORTS

STATION/POSITION TIME  SKY/WX   TEMP    WIND        PRES    VSBY
                                AIR SEA DIR/SP/G
                 (UTC)          (F)     (DEG/KT/KT) (MB)    (MI)
BUOY 30 S HIGH I 0450            60 58  210/ 12/ 14 1023.8F
WVE H/P(F/S)=  1/ 3

SEA RIM ST PARK  0500            59     210/ 12/ 15 1024.1F
PORT ARTHUR      0400               55  200/  6/  8 1024.0F
SABINE PASS N    0400            56 55  200/  9/ 13 1025.2F
TEXAS POINT      NOT AVBL
CALCASIEU PASS   0400            57 57  220/ 14/ 16 1023.3F
LK CHARLES BEACH 0400            50 55              1024.3F
MARSH ISLAND     NOT AVBL
FRESH WATER LOCK 0400            55 52  190/  8/ 11 1024.7F
AMERADA PASS     0400            51 50  190/  5/  7 1025.4F
$$



USA.gov is the U.S. government's official web portal to all federal, state and local government web resources and services.